User: anonymous   Login
Location: Coffee Creek Observatory
(38.8077°N, 94.7179°W)
Time: 10:13:13
(UTC-06:00)
Language:

Lacrosse 4 Rocket - Orbit

View from above orbital plane
View from above orbital plane
View from above satellite
View from above satellite

Ground track
Ground track

The orbit data is extracted from the following two-line orbital elements,

1 26474U 00047B   17022.11895224  .00000098  00000-0  19606-4 0  9991
2 26474  67.9931 254.0086 0052587 126.9743 233.6231 14.95391835893541
Epoch (UTC): 22 January 2017 02:51:17
Eccentricity: 0.0052587
inclination: 67.9931°
perigee height: 544 km
apogee height: 618 km
right ascension of ascending node: 254.0086°
argument of perigee: 126.9743°
revolutions per day: 14.95391835
mean anomaly at epoch: 233.6231°
orbit number at epoch: 89354

The dashed part of the orbit path shows where the satellite is in the earth's shadow,  

DLR